OE2WAO-20 Weather Reports


time (UTC)temp
C
wind
direction
speed
KPH
gust
KPH
rain 1hr
cm
rain 24hr
cm
rain mn
cm
humidity
%
barometer
mb
20260903073047 19 0.0 0.0 0.00 0.00 0.00 69 1025.2
20260903072047 19 0.0 0.0 0.00 0.00 0.00 69 1025.2
20260903071047 19 0.0 0.0 0.00 0.00 0.00 69 1025.2
20260903070047 18 0.0 0.0 0.00 0.00 0.00 71 1025.2
20260903065047 18 0.0 0.0 0.00 0.00 0.00 73 1025.1
20260903064047 18 0.0 0.0 0.00 0.00 0.00 73 1025.1
20260903063047 18 0.0 0.0 0.00 0.00 0.00 75 1025.1
20260903062047 18 0.0 0.0 0.00 0.00 0.00 75 1025.1
20260903061047 17 0.0 0.0 0.00 0.00 0.00 77 1025.1
20260903060047 17 0.0 0.0 0.00 0.00 0.00 77 1024.8
20260903055047 17 0.0 0.0 0.00 0.00 0.00 78 1024.8
20260903054047 17 0.0 0.0 0.00 0.00 0.00 78 1024.8
20260903053047 16 0.0 0.0 0.00 0.00 0.00 81 1024.8
20260903052047 16 0.0 0.0 0.00 0.00 0.00 81 1024.5
20260903051047 16 0.0 0.0 0.00 0.00 0.00 81 1024.5
20260903050047 16 0.0 0.0 0.00 0.00 0.00 80 1024.6
20260903045047 16 0.0 0.0 0.00 0.00 0.00 80 1024.6
20260903044047 16 0.0 0.0 0.00 0.00 0.00 79 1024.6
20260903043047 17 0.0 0.0 0.00 0.00 0.00 76 1024.6
20260903042047 17 0.0 0.0 0.00 0.00 0.00 76 1024.5
20260903041047 17 0.0 0.0 0.00 0.00 0.00 76 1024.3
20260903040047 17 0.0 0.0 0.00 0.00 0.00 76 1024.3
20260903035047 17 0.0 0.0 0.00 0.00 0.00 77 1024.3
20260903034047 17 0.0 0.0 0.00 0.00 0.00 75 1024.3
20260903033047 17 0.0 0.0 0.00 0.00 0.00 75 1024.3
20260903032047 17 0.0 0.0 0.00 0.00 0.00 75 1024.3
20260903031047 18 0.0 0.0 0.00 0.00 0.00 73 1024.3
20260903030047 18 0.0 0.0 0.00 0.00 0.00 73 1024.3
20260903025047 18 0.0 0.0 0.00 0.00 0.00 73 1024.3
20260903024047 18 0.0 0.0 0.00 0.00 0.00 73 1024.1
20260903023047 17 0.0 0.0 0.00 0.00 0.00 72 1024.1
20260903022047 17 0.0 0.0 0.00 0.00 0.00 72 1024.1
20260903021047 18 0.0 0.0 0.00 0.00 0.00 71 1024.1
20260903020047 18 0.0 0.0 0.00 0.00 0.00 68 1024.1
20260903015047 18 0.0 0.0 0.00 0.00 0.00 68 1024.1
20260903014047 18 0.0 0.0 0.00 0.00 0.00 68 1024.1
20260903013047 18 0.0 0.0 0.00 0.00 0.00 68 1024.1
20260903012047 18 0.0 0.0 0.00 0.00 0.00 68 1023.9
20260903011047 18 0.0 0.0 0.00 0.00 0.00 68 1023.9
20260903010047 18 0.0 0.0 0.00 0.00 0.00 69 1023.9
20260903005047 18 0.0 0.0 0.00 0.00 0.00 71 1023.9
20260903004047 17 0.0 0.0 0.00 0.00 0.00 73 1023.9
20260903003047 18 0.0 0.0 0.00 0.00 0.00 75 1023.7
20260903002047 18 0.0 0.0 0.00 0.00 0.00 75 1023.7
20260903001047 17 0.0 0.0 0.00 0.00 0.00 77 1023.7
20260903000047 17 0.0 0.0 0.00 0.00 0.00 77 1023.7
20260902235047 17 0.0 0.0 0.00 0.00 0.00 77 1023.7
20260902234047 17 0.0 0.0 0.00 0.00 0.00 77 1023.7
20260902233047 17 0.0 0.0 0.00 0.00 0.00 79 1023.9
20260902232047 17 0.0 0.0 0.00 0.00 0.00 79 1023.9
20260902231047 17 0.0 0.0 0.00 0.00 0.00 79 1023.9
20260902230047 17 0.0 0.0 0.00 0.00 0.00 79 1023.9
20260902225047 17 0.0 0.0 0.00 0.00 0.00 79 1023.9
20260902224047 17 0.0 0.0 0.00 0.00 0.00 79 1023.8
20260902223047 17 0.0 0.0 0.00 0.00 0.00 79 1023.8
20260902222047 17 0.0 0.0 0.00 0.00 0.00 79 1023.8
20260902221047 17 0.0 0.0 0.00 0.00 0.00 79 1023.8
20260902220047 17 0.0 0.0 0.00 0.00 0.00 79 1023.7
20260902215047 18 0.0 0.0 0.00 0.00 0.00 79 1023.7
20260902214047 18 0.0 0.0 0.00 0.00 0.00 79 1023.5
20260902213047 18 0.0 0.0 0.00 0.00 0.00 79 1023.5
20260902212047 18 0.0 0.0 0.00 0.00 0.00 79 1023.5
20260902211047 18 0.0 0.0 0.00 0.00 0.00 76 1023.5
20260902210047 18 0.0 0.0 0.00 0.00 0.00 76 1023.5
20260902205047 18 0.0 0.0 0.00 0.00 0.00 76 1023.6
20260902204047 18 0.0 0.0 0.00 0.00 0.00 76 1023.6
20260902203047 18 0.0 0.0 0.00 0.00 0.00 76 1023.6
20260902202047 18 0.0 0.0 0.00 0.00 0.00 76 1023.6
20260902201047 18 0.0 0.0 0.00 0.00 0.00 76 1023.6
20260902200047 18 0.0 0.0 0.00 0.00 0.00 77 1023.5
20260902195047 19 0.0 0.0 0.00 0.00 0.00 75 1023.5
20260902194047 19 0.0 0.0 0.00 0.00 0.00 75 1023.3
20260902193047 19 0.0 0.0 0.00 0.00 0.00 75 1023.3
20260902192047 19 0.0 0.0 0.00 0.00 0.00 75 1023.6
20260902191047 20 0.0 0.0 0.00 0.00 0.00 72 1023.6
20260902190047 20 0.0 0.0 0.00 0.00 0.00 72 1023.3
20260902185047 20 0.0 0.0 0.00 0.00 0.00 73 1023.3
20260902184047 20 0.0 0.0 0.00 0.00 0.00 71 1023.0
20260902183047 21 0.0 0.0 0.00 0.00 0.00 69 1023.0
20260902182047 21 0.0 0.0 0.00 0.00 0.00 69 1023.0
20260902181047 21 0.0 0.0 0.00 0.00 0.00 67 1022.8
20260902180047 21 0.0 0.0 0.00 0.00 0.00 66 1022.8
20260902175047 21 0.0 0.0 0.00 0.00 0.00 66 1022.8
20260902174047 22 0.0 0.0 0.00 0.00 0.00 65 1022.7
20260902173047 22 0.0 0.0 0.00 0.00 0.00 65 1022.7
20260902172047 22 0.0 0.0 0.00 0.00 0.00 62 1022.6
20260902171047 22 0.0 0.0 0.00 0.00 0.00 63 1022.6
20260902170047 23 0.0 0.0 0.00 0.00 0.00 61 1022.6
20260902165047 23 0.0 0.0 0.00 0.00 0.00 63 1022.6
20260902164047 23 0.0 0.0 0.00 0.00 0.00 61 1022.6
20260902163047 23 0.0 0.0 0.00 0.00 0.00 59 1022.6
20260902162047 24 0.0 0.0 0.00 0.00 0.00 59 1022.6
20260902161047 25 0.0 0.0 0.00 0.00 0.00 58 1022.6
20260902160047 25 0.0 0.0 0.00 0.00 0.00 57 1022.6
20260902155047 25 0.0 0.0 0.00 0.00 0.00 55 1022.6
20260902154047 25 0.0 0.0 0.00 0.00 0.00 55 1022.6
20260902153047 25 0.0 0.0 0.00 0.00 0.00 53 1022.5
20260902152047 25 0.0 0.0 0.00 0.00 0.00 53 1022.5
20260902151047 25 0.0 0.0 0.00 0.00 0.00 53 1022.5
20260902150047 25 0.0 0.0 0.00 0.00 0.00 53 1022.5
20260902145047 26 0.0 0.0 0.00 0.00 0.00 51 1022.8
20260902144047 26 0.0 0.0 0.00 0.00 0.00 53 1022.8
20260902143047 26 0.0 0.0 0.00 0.00 0.00 51 1022.8
20260902142047 26 0.0 0.0 0.00 0.00 0.00 53 1022.8
20260902141047 26 0.0 0.0 0.00 0.00 0.00 53 1022.8
20260902140047 26 0.0 0.0 0.00 0.00 0.00 53 1022.8
20260902135047 26 0.0 0.0 0.00 0.00 0.00 53 1023.1
20260902134047 26 0.0 0.0 0.00 0.00 0.00 51 1023.1
20260902133047 26 0.0 0.0 0.00 0.00 0.00 55 1023.1
20260902132047 25 0.0 0.0 0.00 0.00 0.00 52 1023.1
20260902131047 24 0.0 0.0 0.00 0.00 0.00 54 1023.3
20260902130047 25 0.0 0.0 0.00 0.00 0.00 57 1023.3
20260902125047 25 0.0 0.0 0.00 0.00 0.00 57 1023.4
20260902124047 24 0.0 0.0 0.00 0.00 0.00 59 1023.4
20260902123047 24 0.0 0.0 0.00 0.00 0.00 59 1023.4
20260902122047 23 0.0 0.0 0.00 0.00 0.00 61 1023.4
20260902121047 23 0.0 0.0 0.00 0.00 0.00 61 1023.4
20260902120047 23 0.0 0.0 0.00 0.00 0.00 61 1023.3
20260902115047 23 0.0 0.0 0.00 0.00 0.00 61 1023.7
20260902114047 23 0.0 0.0 0.00 0.00 0.00 61 1023.7
20260902113047 23 0.0 0.0 0.00 0.00 0.00 59 1023.7
20260902112047 23 0.0 0.0 0.00 0.00 0.00 59 1023.7
20260902111047 23 0.0 0.0 0.00 0.00 0.00 59 1023.7
20260902110047 24 0.0 0.0 0.00 0.00 0.00 57 1023.6
20260902105047 24 0.0 0.0 0.00 0.00 0.00 57 1023.9
20260902104047 23 0.0 0.0 0.00 0.00 0.00 61 1023.9
20260902103047 23 0.0 0.0 0.00 0.00 0.00 59 1023.9
20260902102047 23 0.0 0.0 0.00 0.00 0.00 59 1024.1
20260902101047 23 0.0 0.0 0.00 0.00 0.00 59 1024.1
20260902100047 23 0.0 0.0 0.00 0.00 0.00 61 1024.1
20260902095047 22 0.0 0.0 0.00 0.00 0.00 63 1024.1
20260902094047 22 0.0 0.0 0.00 0.00 0.00 63 1024.1
20260902093047 22 0.0 0.0 0.00 0.00 0.00 63 1024.1
20260902092047 21 0.0 0.0 0.00 0.00 0.00 63 1024.1
20260902091047 21 0.0 0.0 0.00 0.00 0.00 63 1024.4
20260902090047 21 0.0 0.0 0.00 0.00 0.00 67 1024.4
20260902085047 20 0.0 0.0 0.00 0.00 0.00 70 1024.4
20260902084047 20 0.0 0.0 0.00 0.00 0.00 71 1024.4
20260902083047 20 0.0 0.0 0.00 0.00 0.00 71 1024.4
20260902082047 19 0.0 0.0 0.00 0.00 0.00 73 1024.4
20260902081047 18 0.0 0.0 0.00 0.00 0.00 75 1024.4
20260902080047 18 0.0 0.0 0.00 0.00 0.00 75 1024.4
20260902075047 18 0.0 0.0 0.00 0.00 0.00 75 1024.4
20260902074047 18 0.0 0.0 0.00 0.00 0.00 77 1024.3